Weather observations for the past three days for
Hammond, Hammond Municipal Airport
Imperial (Metric)
Date Time (cdt) Wind (mph) Vis. (mi.) Weather Sky Cond. Temperature (ºF) Relative Humidity Wind Chill (°F) Heat Index (°F) Pressure Precipitation (in)
Air Dwpt 6 hour altimeter (in) sea level (mb) 1 hr 3 hr 6 hr
Max. Min.
21 16:55 SW 6 10.00 Fair CLR 78.3 75.6 91% 81 29.98 0.0
21 16:35 Calm 10.00 Partly Cloudy SCT009 77.9 75.2 91% 80 30 0.0
21 16:15 Calm 10.00 Overcast BKN009 OVC012 77.5 75.2 93% 79 30.02 0.0
21 15:55 E 5 10.00 Overcast OVC009 77 74.8 93% 78 30.03 0.0
21 15:35 E 6 10.00 Overcast BKN009 OVC033 75.6 73.6 94% 75 30.04 0.0
21 15:15 E 3 10.00 Light Rain SCT009 SCT033 OVC100 74.8 72.9 94% 30.05 0.0
21 14:55 SE 5 10.00 Thunderstorm Light Rain SCT055 SCT070 OVC100 74.3 72.3 94% 30.04 0.0
21 14:35 S 8 10.00 Thunderstorm Light Rain SCT013 BKN055 OVC090 74.8 73.4 95% 30.04 0.0
21 14:15 S 16 G 22 7.00 Thunderstorm Light Rain in Vicinity SCT020 BKN047 OVC065 76.6 75.2 95% 77 30.04 0.0
21 13:55 S 16 G 25 7.00 Light Rain SCT024 BKN043 OVC065 77.2 75.2 94% 78 30.03 0.0
21 13:35 S 16 G 21 10.00 Overcast BKN040 BKN049 OVC055 82.4 75.4 79% 90 30.02 0.0
21 13:15 S 15 10.00 Overcast SCT032 BKN038 OVC065 84.9 74.8 72% 93 30.01 0.0
21 12:55 SE 7 10.00 Mostly Cloudy SCT032 BKN039 BKN065 88.9 76.5 90.3 76.5 67% 101 30.01 0.0
21 12:35 SE 5 10.00 Thunderstorm in Vicinity BKN039 BKN048 BKN095 89.6 76.5 65% 102 30.02 0.0
21 12:15 S 7 10.00 Partly Cloudy SCT042 SCT048 89.1 76.3 66% 101 30.03 0.0
21 11:55 Calm 10.00 Partly Cloudy SCT045 88.3 76.6 68% 100 30.02 0.0
21 11:35 Calm 10.00 Partly Cloudy SCT032 SCT040 87.4 75.6 68% 98 30.02 0.0
21 11:15 Calm 10.00 Mostly Cloudy SCT021 SCT034 BKN040 86.7 75.9 70% 97 30.02 0.0
21 10:55 Calm 10.00 Mostly Cloudy SCT021 BKN029 BKN034 86.4 76.3 72% 97 30.02 0.0
21 10:35 Calm 10.00 Mostly Cloudy SCT015 BKN029 84.6 78.1 81% 96 30.02 0.0
21 10:15 Calm 10.00 Partly Cloudy SCT015 84.2 78.1 82% 95 30.03 0.0
21 09:55 Calm 10.00 Fair CLR 82.4 77.5 85% 91 30.02 0.0
21 09:35 Calm 10.00 Fair CLR 80.8 77.4 89% 88 30.03 0.0
21 09:15 Calm 10.00 Partly Cloudy SCT045 79.5 77.2 93% 85 30.04 0.0
21 08:55 Calm 10.00 Light Rain SCT038 SCT045 79 77.7 96% 83 30.04 0.0
21 08:35 Calm 10.00 Light Rain SCT047 SCT060 SCT070 79 77.9 97% 83 30.04 0.0
21 08:15 Calm 10.00 Fair CLR 78.8 77.5 96% 83 30.05 0.0
21 07:55 Calm 10.00 Fair CLR 78.3 77.7 98% 81 30.04 0.0
21 07:35 Calm 10.00 Fair CLR 77.9 77.4 98% 80 30.03 0.0
21 07:15 Calm 10.00 Fair CLR 77 76.8 99% 78 30.02 0.0
21 06:55 Calm 10.00 Fair CLR 75.7 75.7 76.1 74.3 100% 74 30.02 0.0 0.01 0.01
21 06:35 Calm 10.00 Fair CLR 74.7 74.7 100% 30.03 0.0 0.01
21 06:15 Calm 10.00 Fair CLR 74.3 74.3 100% 30.03 0.0
21 05:35 Calm 10.00 Partly Cloudy SCT018 SCT023 74.5 74.5 100% 30.02 0.0
21 05:15 Calm 10.00 Mostly Cloudy SCT018 BKN025 BKN050 75 75 100% 72 30.02 0.0
21 04:55 Calm 10.00 Overcast BKN016 OVC024 75.2 75.2 100% 73 30.02 0.0
21 04:35 Calm 10.00 Overcast OVC018 74.5 74.5 100% 30.02 0.0
21 04:15 Calm 10.00 Mostly Cloudy BKN018 BKN026 74.7 74.7 100% 30.02 0.0
21 03:55 Calm 10.00 Partly Cloudy SCT018 SCT023 74.8 74.8 100% 30.02 0.0
21 03:35 Calm 10.00 Partly Cloudy SCT017 SCT026 SCT032 75.4 75.4 100% 73 30.01 0.0
21 03:15 Calm 10.00 Mostly Cloudy BKN019 BKN024 BKN033 75.2 75.2 100% 73 30.02 0.0
21 02:55 Calm 10.00 Mostly Cloudy BKN019 75.2 75.2 100% 73 30.02 0.0
21 02:35 Calm 10.00 Fair CLR 75.4 75.4 100% 73 30.02 0.0
21 02:15 Calm 10.00 Fair CLR 75.2 75.2 100% 73 30.03 0.0
21 01:55 Calm 10.00 Fair CLR 75.2 75.2 100% 73 30.03 0.0
21 01:35 Calm 10.00 Fair CLR 74.8 74.7 99% 30.03 0.0
21 01:15 Calm 10.00 Fair CLR 76.1 75.7 99% 75 30.03 0.0
21 00:55 Calm 10.00 Fair CLR 75.6 75.4 82.4 75.4 99% 74 30.03 0.0
21 00:35 Calm 10.00 Fair CLR 75.4 75.2 99% 73 30.03 0.0
21 00:15 Calm 10.00 Fair CLR 75.4 75.2 99% 73 30.03 0.0
20 23:55 Calm 10.00 Fair CLR 75.6 75.2 99% 74 30.04 0.0
20 23:35 Calm 10.00 Fair CLR 77 76.1 97% 78 30.04 0.0
20 23:15 Calm 10.00 Fair CLR 76.6 76.1 98% 77 30.04 0.0
20 22:55 Calm 10.00 Fair CLR 76.8 76.5 99% 77 30.04 0.0
20 22:35 Calm 10.00 Fair CLR 77 76.1 97% 78 30.04 0.0
20 22:15 S 3 10.00 Partly Cloudy SCT090 77 75.9 96% 78 30.04 0.0
20 21:55 Calm 10.00 Partly Cloudy SCT075 SCT090 78.1 76.1 94% 81 30.05 0.0
20 21:35 Calm 10.00 Partly Cloudy SCT090 77.5 76.3 96% 79 30.04 0.0
20 21:15 N 3 10.00 Partly Cloudy SCT090 78.1 75.9 93% 81 30.03 0.0
20 20:55 Calm 10.00 Fair CLR 78.8 76.1 91% 83 30.02 0.0
20 20:35 S 3 10.00 Fair CLR 78.8 75.7 90% 82 30.02 0.0
20 20:15 S 3 10.00 Fair CLR 79.2 75.9 90% 83 30.02 0.0
20 19:55 S 5 10.00 Fair CLR 80.4 76.1 87% 86 30.01 0.0
20 19:35 S 3 10.00 Fair CLR 81 76.8 87% 88 30.01 0.0
20 19:15 S 5 10.00 Fair CLR 81.5 76.6 85% 89 30 0.0
20 18:55 S 6 10.00 Partly Cloudy SCT065 82.6 76.6 89.6 81.9 82% 91 30.01 0.0
20 18:35 S 6 10.00 Mostly Cloudy BKN065 BKN075 82.4 76.8 83% 91 30.01 0.0
20 18:15 S 6 10.00 Partly Cloudy SCT065 82.4 77.7 86% 91 30.01 0.0
20 17:55 S 6 10.00 Fair CLR 82.4 77.7 86% 91 30.01 0.0
20 17:35 S 3 10.00 Fair CLR 82.6 77 83% 91 30 0.0
20 17:15 SE 3 10.00 Fair CLR 82.8 77 83% 92 30 0.0
20 16:55 S 5 10.00 Fair CLR 82.6 76.6 82% 91 29.99 0.0
20 16:35 S 6 10.00 Fair CLR 82 76.8 84% 90 30 0.0
20 16:15 S 5 10.00 Fair CLR 81.9 76.6 84% 90 30.01 0.0
20 15:55 SW 7 10.00 Partly Cloudy SCT015 SCT024 82.8 76.6 82% 91 30.03 0.0
20 15:35 SW 13 10.00 Overcast SCT015 BKN020 OVC034 83.8 78.8 85% 95 30.04 0.0
20 15:15 S 7 10.00 Mostly Cloudy SCT027 BKN036 BKN047 85.3 77.9 79% 97 30.04 0.0
20 14:55 S 6 10.00 Thunderstorm in Vicinity SCT036 BKN047 BKN050 86.4 77.9 76% 99 30.04 0.0
20 14:35 W 5 10.00 Mostly Cloudy SCT036 BKN047 BKN055 88.2 75.2 66% 98 30.04 0.0
20 14:15 Calm 10.00 Mostly Cloudy BKN036 BKN042 BKN050 88.5 75.2 65% 99 30.04 0.0
20 13:55 W 8 10.00 Partly Cloudy SCT034 88.7 75.2 64% 99 30.04 0.0
20 13:35 NW 6 10.00 Partly Cloudy SCT034 88.2 75.4 66% 98 30.03 0.0
20 13:15 W 5 10.00 Partly Cloudy SCT031 SCT041 SCT047 89.1 76.1 66% 101 30.03 0.0
20 12:55 W 5 10.00 Thunderstorm in Vicinity BKN031 BKN038 88.3 76.1 88.3 76.1 67% 100 30.04 0.0
20 12:35 NW 5 10.00 Mostly Cloudy SCT028 BKN037 87.6 76.3 69% 99 30.05 0.0
20 12:15 NW 5 10.00 Partly Cloudy SCT028 SCT038 87.8 75.9 68% 99 30.05 0.0
20 11:55 NW 8 10.00 Partly Cloudy SCT026 SCT031 87.3 76.3 70% 98 30.04 0.0
20 11:35 W 7 10.00 Partly Cloudy SCT022 86.7 77.2 73% 98 30.05 0.0
20 11:15 NW 6 10.00 Partly Cloudy SCT024 86.5 77.7 75% 99 30.05 0.0
20 10:55 NW 7 10.00 Mostly Cloudy SCT022 BKN026 85.6 77 75% 97 30.05 0.0
20 10:35 NW 6 10.00 Partly Cloudy SCT022 SCT027 85.3 77 76% 96 30.05 0.0
20 10:15 Calm 10.00 Partly Cloudy SCT020 SCT080 84.6 76.8 78% 95 30.05 0.0
20 09:55 Calm 10.00 Fair CLR 83.3 76.1 79% 92 30.05 0.0
20 09:35 W 3 10.00 Fair CLR 81.9 75.7 82% 89 30.05 0.0
20 09:15 NW 3 10.00 Fair CLR 80.8 75.9 85% 87 30.05 0.0
20 08:55 W 3 10.00 Partly Cloudy SCT022 79.2 77.2 94% 84 30.05 0.0
20 08:35 Calm 10.00 Mostly Cloudy SCT003 BKN022 78.1 77.5 98% 81 30.05 0.0
20 08:15 Calm 10.00 Mostly Cloudy BKN003 77.4 77.2 99% 79 30.04 0.0
20 07:55 Calm 10.00 Mostly Cloudy BKN003 76.6 76.6 100% 77 30.03 0.0
20 07:35 NW 3 10.00 Mostly Cloudy BKN003 76.5 76.5 100% 76 30.02 0.0
20 07:15 Calm 10.00 Partly Cloudy SCT003 76.3 76.3 100% 76 30.02 0.0
20 06:55 NW 3 10.00 Fair CLR 75.9 75.9 77.5 74.8 100% 75 30.01 0.0
20 06:35 Calm 10.00 Fair CLR 76.1 76.1 100% 75 30 0.0
20 06:15 SW 3 10.00 Fair CLR 76.1 76.1 100% 75 30 0.0
20 05:55 Calm 10.00 Mostly Cloudy SCT004 SCT016 BKN030 76.1 76.1 100% 75 30.01 0.0
20 05:35 Calm 10.00 Mostly Cloudy SCT004 SCT008 BKN020 75.9 75.9 100% 75 30 0.0
20 05:15 Calm 7.00 Fair CLR 75.7 75.7 100% 74 29.99 0.0
20 04:55 Calm 10.00 Partly Cloudy SCT004 76.1 76.1 100% 75 29.99 0.0
20 04:35 Calm 1.50 Fog/Mist SCT004 SCT044 75 75 100% 72 29.99 0.0
20 04:15 Calm 7.00 Fair CLR 76.3 76.3 100% 76 29.99 0.0
20 03:55 Calm 7.00 Fair CLR 76.6 76.6 100% 77 29.99 0.0
20 03:35 S 3 10.00 Fair CLR 76.6 76.6 100% 77 29.99 0.0
20 03:15 Calm 10.00 Fair CLR 76.5 76.3 99% 76 29.99 0.0
20 02:55 Calm 10.00 Fair CLR 76.6 76.5 99% 77 29.98 0.0
20 02:35 Calm 10.00 Thunderstorm in Vicinity SCT100 77 76.5 98% 78 29.98 0.0
20 02:15 SW 3 10.00 Thunderstorm in Vicinity SCT018 SCT039 BKN100 77.2 76.6 98% 78 29.99 0.0
20 01:55 SW 3 10.00 Overcast SCT021 BKN032 OVC100 77.2 76.5 98% 78 30 0.0 0.01
20 01:35 S 13 G 16 4.00 Thunderstorm Heavy Rain SCT009 BKN027 OVC037 77.2 77 99% 78 30 0.0 0.01
20 01:15 S 8 4.00 Thunderstorm Light Rain SCT009 BKN026 OVC041 77.2 76.8 99% 78 30.01 0.0
20 00:55 Calm 10.00 Overcast SCT013 BKN085 OVC100 77.2 77 79.5 76.6 99% 78 30.01 0.0
20 00:35 Calm 10.00 Overcast SCT013 SCT023 OVC075 77 76.6 99% 78 30.02 0.0
20 00:15 Calm 10.00 Light Rain SCT020 SCT026 OVC065 77.4 77 99% 79 30.02 0.0
19 23:55 SW 5 5.00 Light Rain SCT020 BKN036 OVC075 77 76.5 98% 78 30.03 0.0
19 23:35 Calm 10.00 Overcast SCT060 BKN075 OVC085 76.8 76.1 98% 77 30.02 0.0
19 23:15 Calm 10.00 Overcast SCT060 OVC085 76.6 76.1 98% 77 30.02 0.0
19 22:55 Calm 10.00 Overcast SCT060 OVC075 76.6 76.1 98% 77 30.01 0.0
19 22:35 Calm 10.00 Overcast SCT060 BKN075 OVC085 76.6 75.7 97% 77 30 0.0
19 22:15 Calm 7.00 Overcast SCT042 SCT048 OVC075 77 75.7 96% 78 30.01 0.0
19 21:55 S 3 10.00 Overcast BKN045 OVC050 77.2 75.6 95% 78 30 0.0
19 21:35 S 7 10.00 Overcast SCT016 BKN045 OVC080 77.4 76.1 96% 79 30 0.0
19 21:15 S 3 10.00 Overcast SCT018 BKN050 OVC080 77.9 77 97% 80 29.99 0.0
19 20:55 Calm 5.00 Light Rain BKN018 BKN041 OVC050 78.3 76.6 95% 81 29.98 0.0
19 20:35 SE 3 10.00 Overcast SCT016 BKN047 OVC070 78.6 76.5 93% 82 29.98 0.0
19 20:15 SE 5 10.00 Overcast SCT046 BKN060 OVC070 78.8 76.1 91% 83 29.97 0.0
19 19:55 SE 7 10.00 Overcast SCT046 SCT055 OVC080 79 76.3 91% 83 29.97 0.0
19 19:15 SE 8 10.00 Fair CLR 78.8 76.5 93% 83 29.96 0.0
19 18:55 SE 5 10.00 Fair CLR 79.7 76.1 82.4 72.1 89% 85 29.97 0.0
19 18:35 SE 5 10.00 Partly Cloudy SCT013 SCT018 79.9 76.1 88% 85 29.98 0.0
19 18:15 SE 5 10.00 Mostly Cloudy BKN016 BKN027 80.6 77 89% 87 29.97 0.0
19 17:55 SE 8 10.00 Mostly Cloudy BKN016 BKN025 BKN030 80.8 76.6 87% 87 29.96 0.0
19 17:35 SE 7 10.00 Partly Cloudy SCT028 81.5 75.9 83% 88 29.97 0.0
19 17:15 SE 5 10.00 Mostly Cloudy SCT014 SCT021 BKN028 81.1 76.5 86% 88 29.98 0.0
19 16:55 SE 8 10.00 Partly Cloudy SCT014 SCT020 SCT026 81.5 75.9 83% 88 29.99 0.0
19 16:35 SE 6 10.00 Fair CLR 81.5 75.6 82% 88 29.98 0.0
19 16:15 S 9 10.00 Fair CLR 82 75.2 80% 89 29.99 0.0
19 15:55 SE 6 10.00 Fair CLR 80.8 73.8 79% 86 29.99 0.0
19 15:35 SE 6 10.00 Fair CLR 81 73.9 79% 86 30 0.0
19 15:15 E 3 10.00 Fair CLR 77.7 73.6 87% 80 30 0.0
19 14:55 SE 6 10.00 Partly Cloudy SCT005 75.6 73.6 94% 75 30.02 0.0
19 14:35 SE 5 10.00 Partly Cloudy SCT005 74.3 72.9 95% 30.03 0.0
19 14:15 E 7 10.00 Fair CLR 73.4 72.1 96% 30.03 0.0
19 13:55 Calm 10.00 Partly Cloudy SCT100 SCT120 73 72.1 97% 30.03 0.0
19 13:35 E 3 10.00 Light Rain SCT044 SCT090 OVC110 72.5 71.8 98% 30.03 0.0
19 13:15 SE 6 10.00 Thunderstorm Light Rain in Vicinity OVC110 72.3 71.6 98% 30.04 0.0
19 12:55 SE 5 7.00 Thunderstorm Light Rain OVC110 72.5 71.6 84.2 72 97% 30.05 0.0
19 12:35 E 5 10.00 Thunderstorm Rain in Vicinity SCT060 SCT070 BKN095 72.3 71.6 98% 30.03 0.0
19 12:15 S 3 5.00 Thunderstorm Heavy Rain SCT023 BKN055 OVC070 72.1 70.7 95% 30.03 0.0
19 11:55 SW 10 G 18 4.00 Thunderstorm Heavy Rain SCT016 BKN029 OVC049 73.2 70.3 91% 30.06 0.0
19 11:35 NW 18 G 24 10.00 Thunderstorm SCT014 BKN027 BKN032 79.3 71.8 78% 83 30.05 0.0
19 11:15 SE 5 10.00 Mostly Cloudy BKN012 BKN022 BKN028 84 78.3 83% 95 30.03 0.0
19 10:55 Calm 10.00 Mostly Cloudy SCT010 BKN022 82 77.5 86% 91 30.03 0.0
19 10:35 Calm 10.00 Partly Cloudy SCT010 SCT024 81.1 77 87% 88 30.04 0.0
19 10:15 Calm 10.00 Partly Cloudy SCT027 SCT033 80.1 76.5 89% 86 30.04 0.0
19 09:55 Calm 10.00 Overcast BKN027 OVC033 79.3 76.1 90% 84 30.05 0.0
19 09:35 E 3 10.00 Overcast OVC027 78.8 75.4 89% 82 30.04 0.0
19 09:15 SE 3 10.00 Mostly Cloudy BKN027 78.3 75.2 90% 81 30.04 0.0
19 08:55 E 3 10.00 Partly Cloudy SCT029 77.9 74.5 89% 80 30.04 0.0
19 08:35 SE 5 10.00 Partly Cloudy SCT029 77.5 74.5 90% 79 30.03 0.0
19 08:15 E 5 10.00 Partly Cloudy SCT030 76.3 74.1 93% 76 30.03 0.0
19 07:55 E 5 10.00 Partly Cloudy SCT030 75.2 73.4 94% 74 30.03 0.0
19 07:35 E 3 10.00 Fair CLR 74.5 73.8 98% 30.02 0.0
19 07:15 Calm 10.00 Mostly Cloudy BKN010 73 72.7 99% 30.02 0.0
19 06:55 Calm 10.00 Partly Cloudy SCT010 72.5 72.5 72.5 71.1 100% 30.01 0.0
19 06:35 Calm 10.00 Fair CLR 71.8 71.8 100% 30.01 0.0
19 06:15 Calm 10.00 Fair CLR 71.6 71.6 100% 30.01 0.0
19 05:55 Calm 10.00 Partly Cloudy SCT012 SCT036 71.6 71.6 100% 30.01 0.0
19 05:35 Calm 10.00 Mostly Cloudy SCT012 BKN018 BKN025 71.6 71.6 100% 30.01 0.0
19 05:15 Calm 10.00 Overcast BKN014 OVC020 71.6 71.6 100% 30.01 0.0
19 04:55 N 3 10.00 Overcast SCT012 OVC020 71.6 71.6 100% 30.01 0.0
19 04:35 NW 3 10.00 Partly Cloudy SCT014 SCT020 71.4 71.4 100% 30.01 0.0
19 04:15 Calm 10.00 Partly Cloudy SCT017 71.6 71.6 100% 30 0.0
19 03:55 Calm 10.00 Mostly Cloudy BKN015 71.6 71.6 100% 30 0.0
19 03:35 Calm 10.00 Partly Cloudy SCT015 71.8 71.8 100% 30.01 0.0
19 03:15 Calm 10.00 Fair CLR 71.8 71.8 100% 30.01 0.0
19 02:55 Calm 10.00 Partly Cloudy SCT001 SCT009 71.8 71.8 100% 30.01 0.0
19 02:35 Calm 10.00 Overcast OVC001 71.6 71.6 100% 30.01 0.0
19 02:15 Calm 0.50 Fog OVC001 71.2 71.2 100% 30.01 0.0
19 01:55 Calm 0.75 Fog/Mist OVC001 71.6 71.6 100% 30.02 0.0
19 01:35 Calm 2.00 Fog/Mist OVC001 71.6 71.6 100% 30.02 0.0
19 01:15 Calm 7.00 Overcast OVC001 71.8 71.8 100% 30.02 0.0
19 00:55 Calm 1.25 Fog/Mist OVC003 72 72 75.2 72 100% 30.02 0.0 0.01 0.01
19 00:35 Calm 0.50 Fog OVC003 72 72 100% 30.03 0.0 0.01
19 00:15 Calm 0.50 Fog OVC003 72.1 72.1 100% 30.02 0.0 0.01
18 23:55 Calm 0.75 Fog/Mist OVC003 72.3 72.3 100% 30.02 0.0
18 23:35 Calm 7.00 Partly Cloudy SCT003 72.5 72.5 100% 30.02 0.0
18 23:15 Calm 10.00 Partly Cloudy SCT003 73.2 73.2 100% 30.02 0.0
18 22:55 Calm 10.00 Fair CLR 73.4 73.2 99% 30.02 0.0
18 22:35 Calm 10.00 Fair CLR 73.4 73.4 100% 30.02 0.0
18 22:15 Calm 10.00 Fair CLR 73 73 100% 30.02 0.0
18 21:55 Calm 10.00 Fair CLR 73.4 73.4 100% 30.02 0.0
18 21:35 Calm 10.00 Fair CLR 73.8 73.6 99% 30.01 0.0
18 21:15 Calm 10.00 Fair CLR 73.8 73.6 99% 30.01 0.0
18 20:55 NE 5 10.00 Fair CLR 74.1 73.8 99% 30 0.0
18 20:35 Calm 10.00 Fair CLR 74.3 73.9 99% 30 0.0
18 20:15 Calm 10.00 Fair CLR 74.8 74.1 98% 30 0.0
18 19:55 Calm 10.00 Fair CLR 75.2 74.3 97% 73 30 0.0
18 19:35 Calm 10.00 Fair CLR 75.2 74.1 96% 73 29.99 0.0
18 19:15 Calm 10.00 Partly Cloudy SCT005 75.2 73.9 96% 73 29.99 0.0
18 18:55 Calm 10.00 Partly Cloudy SCT005 74.8 73.9 92.8 72.9 97% 29.99 0.0
18 18:35 Calm 10.00 Partly Cloudy SCT005 74.7 73.8 97% 29.98 0.0
18 18:15 Calm 10.00 Fair CLR 74.5 73.8 98% 29.98 0.0
18 17:55 Calm 10.00 Partly Cloudy SCT005 73.8 73.4 99% 29.99 0.0
18 17:35 Calm 10.00 Mostly Cloudy BKN005 BKN013 BKN020 73.8 73.4 99% 30.01 0.0
18 17:15 E 5 10.00 Light Rain SCT005 SCT015 BKN046 73.8 73.4 99% 30.02 0.0
Date Time (cdt) Wind (mph) Vis. (mi.) Weather Sky Cond. Air Dwpt Max. Min. Relative Humidity Wind Chill (°F) Heat Index (°F) altimeter (in) sea level (mb) 1 hr 3 hr 6 hr
6 hour
Temperature (ºF) Pressure Precipitation (in)